Temperature
0 1 1 0 -0 -1 -2 -1 -1 0 0 0 -0 -1 -0 -0 -1 -1 -2 -2 -3 -3 -3 -3 -3 -4 -4 -4 -4 -4 -4 -3 -3 -3 -3 -3 -3 -3 -3 -2 -2 -2 -2 -2
-1 -0 0 -0 -0 -1 -2 -2 -1 -1 -1 -1 -0 0 -1 -1 -1 -2 -2 -3 -3 -3 -4 -4 -4 -4 -4 -4 -4 -4 -4 -4 -4 -4 -4 -4 -3 -3 -3 -3 -3 -3 -3 -3
-0 0 -0 -1 -1 -1 -1 -2 -2 -2 -1 -1 -1 -1 -1 -2 -2 -2 -3 -3 -3 -4 -4 -4 -4 -5 -5 -5 -5 -5 -5 -5 -5 -5 -4 -4 -4 -4 -4 -4 -4 -4 -3 -3
-1 -1 -1 0 -1 -1 -1 -2 -2 -2 -2 -2 -2 -1 -1 -2 -2 -2 -3 -3 -4 -4 -4 -5 -5 -5 -5 -5 -5 -6 -6 -6 -6 -5 -5 -5 -5 -5 -4 -4 -4 -4 -4 -4
-2 -1 -0 -0 -1 -2 -2 -2 -2 -3 -3 -2 -2 -2 -2 -2 -3 -3 -4 -4 -4 -5 -5 -5 -5 -6 -6 -6 -6 -6 -6 -6 -6 -6 -6 -6 -6 -5 -5 -5 -5 -5 -5 -5
-2 -2 -1 -0 -2 -2 -2 -3 -2 -3 -3 -3 -3 -4 -3 -3 -3 -4 -4 -5 -5 -5 -5 -6 -6 -6 -6 -6 -6 -7 -7 -7 -7 -7 -7 -7 -6 -6 -6 -6 -6 -6 -5 -5
-3 -2 -2 -2 -3 -3 -2 -2 -2 -2 -3 -3 -4 -4 -4 -4 -4 -5 -5 -5 -5 -6 -6 -6 -6 -6 -7 -7 -7 -7 -7 -7 -7 -7 -7 -7 -7 -7 -7 -7 -7 -6 -6 -6
-3 -3 -2 -4 -4 -4 -3 -2 -3 -3 -3 -4 -4 -4 -4 -5 -5 -5 -6 -6 -6 -6 -6 -6 -7 -7 -7 -7 -7 -8 -8 -8 -8 -8 -8 -8 -8 -7 -7 -7 -7 -7 -7 -7
-4 -3 -2 -3 -3 -3 -3 -3 -3 -4 -4 -4 -5 -5 -5 -6 -6 -6 -6 -6 -6 -7 -7 -7 -7 -8 -8 -8 -8 -8 -8 -8 -8 -8 -8 -8 -8 -8 -8 -8 -8 -8 -8 -8
-4 -4 -3 -3 -3 -3 -3 -4 -4 -4 -4 -5 -5 -6 -6 -6 -7 -7 -7 -7 -7 -7 -7 -7 -8 -8 -8 -8 -9 -9 -9 -9 -9 -9 -9 -9 -9 -9 -9 -9 -9 -9 -8 -8
-5 -5 -4 -4 -3 -3 -4 -4 -4 -5 -5 -5 -6 -6 -7 -7 -7 -7 -7 -7 -8 -8 -8 -8 -8 -8 -8 -9 -9 -9 -9 -9 -9 -9 -9 -9 -9 -9 -9 -9 -9 -9 -9 -9
-5 -4 -5 -4 -4 -4 -4 -5 -5 -5 -6 -6 -6 -7 -7 -7 -7 -8 -8 -8 -8 -8 -8 -8 -8 -9 -9 -9 -9 -10 -10 -10 -10 -10 -10 -10 -10 -9 -9 -9 -9 -9 -9 -9
-4 -4 -4 -5 -5 -5 -5 -6 -6 -6 -6 -7 -7 -7 -7 -8 -8 -8 -8 -8 -8 -8 -8 -9 -9 -9 -9 -10 -10 -10 -10 -10 -10 -10 -10 -10 -10 -10 -10 -9 -9 -9 -9 -9
-5 -5 -5 -5 -6 -6 -6 -6 -7 -7 -7 -7 -7 -8 -8 -8 -8 -8 -8 -9 -9 -9 -9 -9 -9 -9 -10 -10 -10 -10 -10 -10 -11 -11 -11 -11 -11 -11 -11 -10 -10 -10 -9 -10
-6 -6 -6 -6 -6 -7 -7 -7 -7 -8 -8 -8 -8 -8 -8 -8 -9 -9 -9 -9 -9 -9 -9 -10 -10 -10 -10 -10 -10 -10 -11 -11 -11 -11 -11 -11 -11 -11 -11 -11 -11 -10 -10 -10
-6 -6 -7 -7 -7 -7 -8 -8 -8 -8 -8 -9 -9 -9 -9 -9 -9 -9 -9 -9 -9 -9 -10 -10 -10 -10 -11 -11 -11 -11 -11 -11 -11 -11 -11 -11 -11 -11 -11 -11 -11 -11 -11 -10
-7 -8 -8 -8 -8 -8 -8 -9 -9 -9 -9 -9 -9 -9 -9 -9 -9 -9 -9 -10 -10 -10 -10 -10 -10 -11 -11 -11 -11 -11 -11 -11 -11 -12 -12 -12 -12 -12 -11 -11 -11 -11 -11 -11
-8 -8 -8 -8 -9 -9 -9 -9 -9 -9 -9 -9 -9 -10 -10 -10 -10 -10 -10 -10 -10 -10 -10 -11 -11 -11 -11 -11 -11 -11 -11 -12 -12 -12 -12 -12 -12 -12 -12 -11 -11 -11 -11 -11
-8 -8 -8 -9 -9 -9 -9 -9 -9 -9 -10 -10 -10 -10 -10 -10 -10 -10 -10 -10 -10 -10 -10 -11 -11 -11 -11 -11 -11 -12 -12 -12 -12 -12 -12 -12 -12 -12 -12 -12 -12 -11 -11 -11
-8 -8 -9 -9 -9 -9 -9 -9 -9 -10 -10 -10 -10 -10 -10 -10 -11 -11 -11 -11 -11 -11 -11 -11 -11 -11 -11 -11 -12 -12 -12 -12 -12 -12 -12 -12 -12 -12 -12 -12 -12 -12 -12 -12
-9 -9 -9 -9 -9 -10 -10 -10 -10 -10 -10 -10 -10 -11 -11 -11 -11 -11 -11 -11 -11 -11 -11 -12 -12 -12 -12 -12 -12 -12 -12 -12 -12 -12 -13 -13 -13 -13 -12 -12 -12 -12 -12 -12
-9 -9 -9 -9 -10 -10 -10 -10 -10 -10 -10 -11 -11 -11 -11 -11 -11 -11 -11 -11 -11 -12 -12 -12 -12 -12 -12 -12 -12 -12 -12 -12 -12 -12 -12 -13 -13 -13 -13 -13 -13 -13 -13 -13
-9 -9 -10 -10 -10 -10 -10 -10 -10 -11 -11 -11 -11 -11 -11 -11 -11 -12 -12 -12 -12 -12 -12 -12 -12 -12 -12 -12 -12 -12 -12 -12 -12 -12 -13 -13 -13 -13 -13 -13 -13 -13 -13 -13
-10 -10 -10 -10 -10 -11 -11 -11 -11 -11 -11 -11 -11 -11 -11 -12 -12 -12 -12 -12 -12 -12 -12 -12 -13 -13 -13 -12 -12 -12 -13 -13 -13 -13 -13 -13 -13 -13 -13 -13 -13 -13 -13 -13
-10 -10 -10 -11 -11 -11 -11 -11 -11 -11 -11 -11 -11 -11 -11 -12 -12 -12 -12 -12 -12 -12 -13 -13 -13 -13 -13 -13 -13 -13 -13 -13 -13 -13 -13 -13 -13 -13 -13 -13 -13 -13 -13 -13
-10 -10 -11 -11 -11 -11 -11 -11 -12 -12 -12 -12 -12 -12 -12 -12 -12 -12 -12 -13 -13 -13 -13 -13 -13 -13 -13 -13 -13 -13 -13 -13 -13 -13 -13 -13 -13 -13 -13 -13 -13 -13 -13 -13
-11 -11 -11 -11 -11 -11 -12 -12 -12 -12 -12 -12 -12 -12 -12 -12 -12 -13 -13 -13 -13 -13 -13 -13 -13 -13 -13 -13 -13 -13 -13 -13 -13 -13 -13 -13 -13 -14 -14 -14 -14 -13 -13 -13
Wind_Speed
8 7 5 8 8 8 9 8 8 8 8 9 6 5 4 3 2 2 3 3 3 4 4 5 5 5 6 6 6 6 6 7 7 7 7 6 7 7 6 6 6 6 6 6
6 7 7 9 10 10 11 9 11 12 12 9 6 4 3 3 2 2 3 3 3 4 4 5 5 6 6 7 7 6 7 7 7 7 7 7 7 6 5 5 5 5 6 6
6 4 5 9 8 10 7 7 7 11 10 5 4 4 4 3 3 3 3 3 4 4 5 5 5 6 6 6 7 7 7 7 7 7 7 8 7 5 5 5 5 5 6 6
4 3 8 6 2 5 7 7 8 7 6 5 6 6 3 2 2 2 3 4 4 4 4 5 5 5 6 6 6 7 7 8 8 7 7 7 6 6 6 5 6 5 6 7
3 5 8 4 2 3 5 7 6 8 7 6 5 3 3 2 1 2 2 3 3 3 4 4 5 5 5 6 6 7 7 8 8 7 8 7 7 6 6 6 6 5 6 6
4 4 6 4 1 0 2 5 3 4 5 4 2 3 4 1 2 3 3 2 3 3 4 4 5 5 5 6 7 7 8 8 8 8 7 7 7 7 6 6 6 6 6 5
7 7 6 2 1 2 2 5 3 1 3 3 4 5 3 3 3 2 3 3 3 3 4 4 4 4 5 6 7 8 8 8 8 8 7 7 7 6 5 6 6 6 7 6
4 6 7 2 3 4 5 3 3 3 3 3 4 4 3 3 3 3 3 3 3 3 4 4 4 4 6 6 7 7 7 8 8 8 7 7 6 6 6 6 6 6 6 6
6 7 2 4 4 3 2 3 4 4 4 4 4 5 4 3 3 3 3 3 3 4 5 5 4 4 5 7 7 7 7 8 8 8 7 7 6 7 6 5 5 6 6 5
5 7 5 4 4 3 4 4 4 4 4 4 5 5 5 4 4 4 3 3 3 4 5 5 5 5 5 6 6 7 7 7 7 7 7 7 6 6 5 5 5 6 6 5
6 6 5 4 4 5 4 4 4 4 3 3 4 4 4 4 4 4 4 4 3 4 5 6 6 6 6 6 6 6 7 7 7 7 7 6 6 5 6 5 5 6 5 4
6 5 4 5 4 4 5 5 5 4 4 3 2 3 3 3 3 3 4 4 4 5 5 6 6 6 6 6 5 6 7 7 6 6 6 6 6 7 8 8 10 10 9 8
5 5 5 6 5 4 4 5 5 3 3 3 2 3 3 3 3 3 4 4 5 5 6 6 6 6 6 6 6 6 6 7 6 6 6 6 6 6 7 8 10 10 11 11
4 4 5 5 5 5 4 3 2 2 2 2 2 2 2 3 3 4 4 5 5 5 5 5 6 6 6 6 6 6 7 8 7 5 6 6 6 6 6 7 7 6 8 10
5 4 5 5 4 3 3 2 3 3 3 3 3 3 3 3 4 5 5 5 4 5 5 5 6 7 6 6 6 7 7 6 5 5 5 6 6 6 5 6 6 6 6 7
5 4 3 4 4 3 3 3 3 4 4 4 4 4 4 4 4 5 4 4 4 5 6 6 6 7 6 6 7 6 6 9 7 6 5 5 5 5 5 5 5 5 5 5
3 4 4 5 5 5 4 4 4 4 4 4 4 4 4 4 4 5 5 5 5 5 6 6 7 7 6 6 6 5 5 7 8 6 5 5 5 5 5 5 5 5 5 6
3 3 3 3 4 4 5 4 4 4 4 4 4 3 4 4 5 6 5 5 6 6 6 6 6 6 6 6 5 5 5 5 5 5 5 5 5 5 5 5 5 5 4 5
2 2 2 3 3 3 3 4 3 3 3 3 3 4 4 4 5 5 5 5 5 6 6 6 9 7 6 7 7 5 5 6 5 5 5 7 6 5 5 4 4 4 4 4
3 3 3 3 3 2 3 3 3 3 3 3 3 4 4 4 4 4 5 5 4 4 6 7 6 5 6 6 7 5 5 5 5 5 5 4 5 5 5 5 5 4 4 4
3 3 3 3 3 3 3 3 3 3 4 3 3 4 4 5 4 4 4 5 5 5 6 8 5 5 5 6 7 4 4 5 5 4 4 4 5 5 5 4 4 4 4 4
3 3 3 3 3 4 4 3 3 3 3 3 3 3 4 4 4 4 4 4 5 7 6 4 4 7 8 7 4 4 5 5 4 4 4 4 4 4 4 4 4 4 4 4
4 3 3 3 3 3 4 3 3 3 3 4 4 4 4 4 3 3 4 4 4 7 6 4 7 11 11 6 4 4 5 5 5 4 4 4 4 4 4 4 4 4 4 4
3 3 3 3 3 2 3 4 3 3 3 3 3 3 3 3 3 3 3 6 7 8 5 7 10 11 10 5 4 4 5 5 5 4 4 4 4 4 4 4 4 4 4 5
3 3 3 3 3 3 4 4 3 3 3 2 3 2 2 2 2 3 3 4 7 7 5 7 10 10 7 5 5 5 5 5 5 5 4 4 4 4 4 4 4 4 4 4
3 3 3 3 3 3 3 3 3 2 2 3 3 2 2 2 2 2 3 3 4 6 5 4 5 6 5 5 5 5 5 6 6 5 5 4 4 4 4 4 5 4 4 4
3 2 2 2 3 3 2 2 2 3 3 2 3 3 3 2 2 2 3 3 4 4 4 4 4 4 5 5 5 5 5 5 5 5 5 4 4 4 4 5 4 4 5 5
Wind_Direction
263 273 264 251 241 211 214 223 234 262 268 277 288 294 304 309 315 325 322 327 330 327 326 330 333 333 333 331 332 329 324 317 310 309 305 301 297 291 283 276 271 266 264 263
268 256 253 262 248 225 227 237 248 268 275 277 289 303 311 311 316 310 310 318 323 325 326 327 327 327 328 327 328 328 321 314 313 314 313 309 303 296 288 282 276 273 268 267
265 263 292 264 238 216 217 216 217 242 256 292 311 307 295 299 303 296 311 320 319 319 319 320 320 321 318 319 323 322 317 313 312 312 312 309 306 302 295 289 286 280 273 268
269 298 257 251 241 197 212 237 227 240 268 284 278 287 286 291 285 308 323 322 320 318 320 319 319 320 320 320 318 316 315 314 314 315 314 315 322 317 304 294 287 280 275 268
252 260 268 262 229 193 213 259 234 235 260 285 304 309 298 346 12 336 325 317 311 309 306 310 313 318 321 318 317 316 314 315 316 316 314 314 316 312 309 306 300 291 286 278
238 254 264 261 239 46 138 268 256 219 250 280 339 289 276 348 10 352 344 330 319 320 317 312 314 321 317 313 317 315 314 314 314 313 310 308 308 308 308 305 300 298 294 288
239 249 264 261 159 112 187 263 315 287 264 246 233 245 281 326 340 337 329 322 323 320 313 309 315 322 315 314 313 312 315 315 314 313 310 307 306 307 308 305 305 301 295 292
216 236 257 183 139 192 238 302 317 310 298 276 276 292 306 314 316 318 321 322 322 318 312 314 320 320 313 309 311 316 316 314 314 314 312 312 313 312 310 308 304 298 294 291
207 225 248 173 207 244 300 297 300 304 302 292 285 289 300 301 299 300 306 316 321 314 310 313 318 315 306 306 314 315 314 312 312 314 313 312 311 310 308 305 300 297 297 296
258 267 262 249 263 282 286 281 296 299 294 288 277 282 289 292 299 305 309 311 315 313 310 310 314 314 304 308 313 313 311 311 311 312 312 313 309 307 305 304 302 300 297 294
258 279 299 279 263 274 286 295 298 298 288 277 273 279 282 289 294 299 306 308 304 299 299 303 311 311 311 313 315 313 310 310 311 310 308 309 308 304 303 295 300 299 296 292
252 264 251 280 295 297 290 288 285 288 292 292 271 268 278 283 286 292 297 300 302 300 304 307 310 310 311 312 312 310 311 312 309 309 307 306 305 305 305 302 306 305 304 299
256 285 279 287 303 308 291 290 291 282 270 283 289 272 274 286 290 293 294 293 291 294 299 302 305 306 308 311 311 307 303 303 303 303 303 304 306 306 309 308 305 304 304 304
275 290 292 291 295 302 304 312 321 320 310 293 290 293 287 288 295 294 289 288 290 295 297 298 302 304 307 311 311 307 301 299 301 298 299 299 300 301 304 308 311 310 309 309
288 281 276 293 308 325 338 343 333 317 316 316 312 307 304 297 293 291 292 297 300 297 298 302 305 306 311 311 310 304 300 297 297 296 294 293 295 297 299 299 302 307 315 317
306 304 293 299 306 320 326 321 308 303 309 312 313 306 300 294 294 295 294 297 298 298 300 302 301 302 307 311 311 307 302 303 305 300 297 297 297 296 296 298 301 305 309 315
302 304 306 307 303 303 298 294 288 289 295 298 298 300 302 303 303 302 302 302 296 293 295 298 301 307 309 309 307 304 303 305 307 303 298 297 299 298 297 298 300 301 301 312
264 275 276 276 284 291 299 301 295 294 293 292 298 300 297 294 293 296 302 308 310 307 303 302 305 312 311 310 308 305 303 301 302 299 300 301 303 301 299 299 301 303 307 315
320 306 304 301 295 291 295 299 296 294 292 293 292 289 287 287 289 294 299 305 307 308 314 316 318 323 317 315 317 308 306 304 305 305 303 306 308 306 305 305 304 304 309 316
333 330 329 327 327 316 308 310 309 304 298 292 289 292 298 298 298 300 301 296 288 292 307 315 320 319 316 311 315 312 310 309 307 307 305 304 306 308 308 310 311 312 313 313
326 327 326 325 324 323 312 304 304 303 305 300 290 289 292 298 302 303 304 305 311 316 318 321 328 321 318 319 319 319 315 313 311 308 309 308 307 307 307 311 314 316 316 317
317 316 314 314 315 317 315 308 296 294 300 302 298 296 299 304 306 305 295 289 308 323 330 324 322 321 327 330 328 324 322 319 316 314 311 311 312 313 314 316 316 316 316 314
314 312 313 312 308 309 314 313 300 292 290 292 293 293 291 294 300 302 307 314 318 325 332 324 325 329 333 339 334 330 328 326 323 322 319 316 315 315 315 317 318 319 319 317
320 322 317 313 313 318 318 315 308 296 283 284 287 286 287 297 303 297 294 312 326 328 330 327 333 337 342 348 339 336 333 330 328 326 325 323 320 318 318 319 319 318 317 316
315 310 310 316 315 307 304 308 313 305 300 300 303 299 287 271 277 301 313 315 322 329 329 329 334 339 345 341 340 337 333 327 326 328 328 325 321 319 317 317 316 315 314 312
309 306 300 294 292 295 301 305 308 312 315 314 318 318 314 309 301 304 310 315 319 327 330 327 331 333 335 334 333 331 329 328 330 332 329 323 320 319 318 318 314 311 310 309
317 313 312 315 314 313 308 306 304 305 305 295 303 314 317 318 319 318 320 323 325 327 327 328 330 329 329 329 329 327 327 326 325 325 326 323 318 315 315 314 312 309 306 306
Height
1506 1503 1503 1504 1504 1508 1510 1505 1505 1494 1491 1486 1485 1485 1485 1484 1483 1483 1482 1481 1480 1479 1478 1477 1475 1472 1470 1468 1465 1463 1461 1458 1455 1454 1452 1449 1447 1445 1444 1443 1443 1443 1443 1443
1506 1501 1500 1499 1497 1500 1502 1501 1499 1495 1491 1483 1483 1483 1483 1482 1481 1481 1480 1479 1479 1478 1476 1474 1472 1470 1467 1465 1462 1460 1457 1454 1452 1449 1447 1444 1441 1439 1438 1437 1437 1437 1436 1437
1503 1498 1499 1496 1490 1492 1493 1491 1493 1492 1486 1482 1482 1481 1480 1480 1479 1478 1478 1477 1476 1475 1473 1471 1470 1467 1464 1461 1459 1457 1454 1451 1448 1445 1442 1439 1436 1434 1433 1432 1432 1431 1431 1431
1504 1502 1501 1486 1483 1483 1486 1486 1485 1483 1481 1481 1480 1479 1478 1478 1477 1476 1476 1475 1474 1472 1471 1469 1466 1464 1461 1458 1456 1453 1450 1447 1445 1442 1438 1435 1432 1430 1429 1428 1427 1426 1425 1425
1505 1501 1490 1484 1483 1483 1485 1483 1480 1480 1479 1478 1477 1477 1475 1475 1475 1474 1474 1472 1471 1469 1468 1465 1463 1461 1458 1455 1453 1450 1447 1444 1441 1438 1435 1432 1428 1426 1424 1423 1422 1421 1420 1419
1503 1501 1493 1483 1482 1480 1483 1483 1476 1476 1476 1476 1476 1478 1474 1473 1472 1471 1470 1469 1468 1466 1464 1462 1460 1457 1455 1452 1449 1446 1443 1440 1438 1435 1431 1428 1425 1423 1421 1419 1418 1416 1415 1414
1503 1499 1489 1483 1482 1482 1487 1480 1475 1474 1474 1474 1474 1474 1472 1470 1469 1468 1467 1466 1464 1462 1460 1458 1456 1454 1451 1448 1446 1443 1440 1437 1434 1431 1428 1425 1422 1420 1418 1416 1414 1412 1410 1409
1500 1498 1490 1481 1481 1483 1479 1475 1474 1473 1472 1472 1471 1470 1469 1467 1466 1465 1463 1462 1460 1458 1456 1455 1453 1450 1447 1445 1442 1439 1436 1433 1430 1427 1425 1422 1419 1416 1414 1412 1409 1408 1406 1404
1490 1485 1478 1476 1476 1475 1475 1473 1472 1471 1470 1469 1467 1466 1465 1464 1463 1461 1460 1458 1457 1455 1453 1451 1449 1447 1444 1441 1439 1436 1433 1429 1426 1424 1421 1418 1415 1413 1410 1408 1406 1404 1402 1400
1483 1477 1474 1474 1473 1473 1472 1471 1470 1469 1467 1466 1464 1463 1462 1460 1459 1458 1456 1455 1453 1452 1449 1447 1446 1444 1441 1438 1435 1432 1429 1426 1423 1420 1417 1415 1412 1410 1407 1405 1403 1401 1399 1396
1480 1475 1472 1470 1470 1470 1469 1467 1466 1465 1464 1463 1461 1460 1458 1457 1456 1454 1453 1452 1450 1448 1446 1444 1442 1439 1437 1434 1432 1429 1425 1422 1419 1417 1414 1411 1409 1407 1404 1402 1401 1399 1396 1395
1475 1471 1471 1468 1467 1467 1465 1464 1463 1461 1460 1459 1458 1456 1455 1454 1453 1452 1450 1448 1447 1445 1443 1440 1438 1436 1433 1431 1428 1425 1422 1419 1416 1414 1411 1409 1406 1403 1401 1400 1398 1396 1394 1393
1470 1468 1467 1465 1464 1463 1462 1461 1459 1458 1457 1456 1455 1454 1452 1451 1450 1449 1447 1445 1443 1441 1439 1437 1435 1432 1430 1427 1425 1422 1419 1416 1414 1411 1409 1406 1403 1401 1398 1396 1394 1392 1391 1389
1466 1465 1463 1462 1461 1459 1458 1457 1456 1455 1454 1453 1452 1450 1449 1448 1447 1445 1444 1442 1440 1438 1436 1434 1431 1429 1426 1424 1421 1418 1416 1413 1411 1408 1405 1403 1401 1398 1396 1393 1390 1388 1387 1386
1462 1462 1461 1459 1457 1456 1454 1454 1452 1451 1450 1449 1449 1447 1446 1445 1443 1442 1440 1439 1437 1435 1433 1430 1428 1425 1423 1420 1417 1415 1412 1409 1407 1404 1402 1400 1398 1395 1393 1391 1388 1386 1384 1382
1458 1457 1456 1455 1454 1453 1451 1450 1449 1448 1447 1446 1445 1444 1443 1442 1440 1439 1437 1436 1433 1431 1429 1427 1424 1422 1419 1417 1414 1411 1408 1406 1404 1401 1399 1397 1395 1392 1390 1388 1386 1384 1382 1380
1455 1454 1453 1452 1451 1450 1449 1448 1447 1446 1445 1444 1443 1442 1440 1439 1437 1435 1434 1432 1431 1428 1426 1424 1421 1419 1416 1414 1411 1408 1405 1403 1400 1398 1396 1394 1392 1390 1388 1386 1384 1382 1380 1378
1453 1452 1452 1450 1449 1448 1446 1445 1444 1443 1442 1441 1440 1439 1437 1436 1434 1432 1431 1429 1427 1425 1423 1421 1418 1416 1413 1411 1408 1405 1402 1400 1397 1395 1393 1391 1389 1387 1385 1383 1381 1380 1378 1376
1450 1450 1449 1448 1447 1446 1444 1443 1442 1441 1440 1439 1437 1436 1435 1433 1432 1430 1428 1426 1423 1421 1419 1417 1415 1413 1410 1407 1405 1402 1399 1397 1394 1392 1390 1388 1386 1384 1382 1381 1379 1378 1376 1374
1449 1448 1447 1446 1445 1443 1442 1441 1440 1438 1437 1436 1435 1433 1432 1430 1429 1427 1425 1423 1421 1419 1417 1415 1412 1410 1407 1405 1402 1399 1396 1394 1391 1389 1387 1385 1383 1381 1380 1378 1377 1375 1374 1372
1448 1446 1445 1444 1442 1441 1440 1439 1437 1436 1435 1433 1432 1430 1429 1427 1426 1424 1422 1420 1419 1417 1415 1412 1410 1407 1405 1402 1400 1397 1394 1391 1389 1387 1384 1382 1380 1379 1377 1376 1375 1373 1372 1370
1446 1445 1443 1442 1440 1439 1438 1437 1435 1433 1432 1431 1429 1428 1427 1425 1423 1422 1420 1419 1417 1414 1412 1410 1408 1406 1403 1401 1398 1395 1392 1389 1387 1385 1382 1380 1378 1377 1375 1374 1372 1371 1369 1368
1444 1443 1442 1440 1439 1437 1436 1434 1433 1431 1430 1428 1427 1426 1424 1423 1421 1420 1418 1417 1415 1413 1411 1408 1406 1404 1401 1398 1396 1393 1390 1388 1385 1383 1381 1378 1377 1375 1373 1372 1370 1369 1367 1366
1442 1441 1440 1438 1437 1435 1433 1432 1431 1429 1428 1426 1425 1424 1423 1421 1419 1418 1417 1415 1413 1411 1409 1407 1404 1402 1399 1396 1394 1391 1389 1386 1384 1381 1379 1377 1375 1373 1372 1370 1369 1367 1366 1364
1441 1439 1438 1436 1434 1433 1432 1430 1429 1427 1426 1425 1424 1422 1421 1419 1418 1416 1415 1413 1411 1409 1407 1405 1402 1400 1397 1395 1392 1390 1387 1385 1382 1380 1378 1375 1374 1372 1370 1369 1367 1366 1364 1363
1438 1437 1436 1434 1433 1431 1430 1428 1427 1426 1424 1423 1422 1421 1419 1418 1416 1414 1413 1411 1409 1407 1405 1403 1400 1398 1396 1393 1391 1388 1386 1383 1381 1378 1376 1374 1372 1370 1369 1367 1366 1364 1363 1361
1436 1435 1434 1432 1431 1430 1428 1427 1425 1424 1423 1421 1420 1419 1417 1416 1414 1412 1411 1409 1407 1405 1403 1401 1399 1397 1394 1392 1389 1387 1384 1382 1379 1377 1375 1373 1371 1369 1367 1366 1364 1362 1361 1359